Location: Unspecified
(50.0830°N, 0.0000°E)
Time: 02:02:45
(UTC+00:00)

N. Korean satellite - Pass Details

Date: 16 November 2019
Orbit: 455 x 506 km, 97.2° (Epoch: 12 December)

Event Time Altitude Azimuth Distance (km) Brightness Sun altitude
Rises 18:02:41 0° 207° (SSW) 2,554 10.8 -17.1°
Reaches altitude 10° 18:05:21 10° 229° (SW) 1,690 10.2 -17.6°
Maximum altitude 18:07:43 16° 270° (W) 1,356 9.9 -17.9°
Drops below altitude 10° 18:10:06 10° 310° (NW) 1,716 9.9 -18.3°
Sets 18:12:51 0° 332° (NNW) 2,614 10.5 -18.7°
